Location: Bastrop State Park
(30.1090°N, 97.2819°W)
Time: 22:07:38
(UTC-06:00)

ISS - Visible Passes

Search period start: 20 December 2014 00:00
Search period end: 30 December 2014 00:00
Orbit: 404 x 414 km, 51.6° (Epoch: 20 December)

Date Brightness Start Highest point End Pass type
(mag) Time Alt. Az. Time Alt. Az. Time Alt. Az.
24 Dec -0.7 19:10:53 10° NNW 19:11:11 12° NNW 19:11:11 12° NNW visible
25 Dec -1.5 18:20:40 10° N 18:22:35 15° NE 18:23:12 14° NE visible
26 Dec -3.5 19:05:03 10° NW 19:08:20 84° NE 19:08:25 81° E visible
27 Dec -2.7 18:14:12 10° NNW 18:17:16 36° NE 18:20:18 10° ESE visible
27 Dec -0.1 19:52:03 10° W 19:53:31 13° SW 19:54:17 12° SW visible
28 Dec -1.1 18:59:47 10° WNW 19:02:36 27° SW 19:05:23 10° S visible
29 Dec -2.8 18:08:19 10° NW 18:11:33 63° SW 18:14:46 10° SSE visible
